Tulnici, România

08:06 PM EEST on septembrie 03, 2015 (GMT +0300)
Bacau | | Change Station
CLOSE
Current Station
Aeroport
Location: Bacau,
Elevation: 607 ft
Nearby Weather Stations

Elev 607 ft 46.52 °N, 26.91 °E | Updated 6 minutes ago

Clear
Cer senin
79 °F
Feels Like 79 °F
N
7
Vânt variabil Vânt from NV

astăzi
High -- | Low -- °F
--% Chance of Precip.
Ieri
High -- | Low -- °F
Precip. -- inch
6:35 AM 7:48 PM
Lună în descreştere, 68% visible
Presiunea 29.89 inch
Vizibilitatea -9999.0 mile
Nori
Punctul de rouă 66 °F
Umiditatea 65%
Precipitaţii 0.00 inch
Adâncimea zăpezii Not available.
UV Not available.
Pollen Not available.
Calitatea aerului Not available.
Flu Activity Not available.
METAR LRBC 031700Z 32006KT CAVOK 26/19 Q1012
Presiunea 29.89 inch
Vizibilitatea -9999.0 mile
Nori
Punctul de rouă 66 °F
Umiditatea 65%
Precipitaţii 0.00 inch
Adâncimea zăpezii Not available.
UV Not available.
Pollen Not available.
Calitatea aerului Not available.
Flu Activity Not available.
METAR LRBC 031700Z 32006KT CAVOK 26/19 Q1012

10-Day Weather Forecast

×

Almanac

Astronomie

Sep. 03, 2015 Răsărit Apus
Timpul Actual
Crepusculul Civil
Crepusculul nautic
Răsărit Astronomic
Luna
Durata zilei lumină
Lungimea zilei
Tomorrow will be .
, % of the Moon is Illuminated

Extremele de azi

Country Highs Country Lows

Community

WunderPhotos

Upload Photos

1,851,989 photos uploaded!

WunderBlogs® & News

Nearby

Calitatea aerului

  Calitatea aerului Index de calitate a aerului Poluat
Not available.

Adâncimea zapezii

Station Depth Elevation

Earthquake Activity

Oraş Distance Mag. Time & Date
Minimum magnitude displayed is 2.5.

Coastal Water Temperatures

Locul Temperatura

Stations

Nearby Weather Stations

Locaţia staţiei Temp Vânt rece Punctul de rouă Umiditatea Vânt Precip. Elev Actualizare Type